Flag for Kenya Weather past 2 weeks in Nairobi, Kenya

Now
57 °F

Sunny.


Feels Like: 56 °F
Forecast: 60 / 84 °F
Wind: 6 mph from North

Location: Kenyatta Airport

Current Time: Mar 7, 2015 at 8:27:59 AM

Latest Report: Mar 7, 2015 at 7:00 AM


Visibility: 10 mi

Pressure: 30.15 "Hg

Humidity: 82%

Dew point: 52 °F

Location of NairobiLocation

Historic Weather in Nairobi — Graph

°F

Nairobi temperature yesterday

Maximum temperature yesterday: 86 °F (at 3:00 PM)
Minimum temperature yesterday: 55 °F (at 7:00 AM)
Average temperature yesterday: 72 °F

Past Weeks' High & Low Weather Summary

 TemperatureHumidityPressure
High88 °F (Feb 26, 4:00 PM)94% (Feb 22, 7:00 AM)30.21 "Hg (Feb 22, 7:00 AM)
Low52 °F (Mar 4, 7:30 AM)13% (Mar 3, 5:00 PM)29.98 "Hg (Feb 25, 4:00 PM)
Average73 °F49%30.10 "Hg
* Reported Feb 20 7:00 AM — Mar 7 7:00 AM, Nairobi, Weather by CustomWeather, © 2015

Note: Actual official high and low records may vary slightly from our data, if they occured in-between our weather recording intervals... More about our weather records

Advertising

Nairobi weather history for previous 24 hours

 ConditionsComfort  
Time TempWeatherWind HumidityBarometerVisibility
7:00 AM
Sat, Mar 7
57 °FSunny.6 mph82%30.15 "Hg10 mi
6:00 AM59 °FClear.7 mph77%30.15 "Hg10 mi
5:00 AM61 °FClear.7 mph72%30.12 "Hg10 mi
4:00 AM61 °FClear.6 mph68%30.12 "Hg10 mi
1:00 AM66 °FClear.10 mph56%30.15 "Hg10 mi
12:00 AM66 °FClear.6 mph52%30.18 "Hg10 mi
11:00 PM
Fri, Mar 6
68 °FClear.9 mph49%30.21 "Hg10 mi
10:00 PM70 °FClear.10 mph43%30.18 "Hg10 mi
9:30 PM72 °FClear.10 mph36%30.15 "Hg10 mi
9:00 PM73 °FClear.13 mph31%30.12 "Hg10 mi
8:00 PM75 °FClear.13 mph25%30.09 "Hg10 mi
7:00 PM79 °FPassing clouds.15 mph89%30.09 "HgN/A
6:00 PM82 °FPassing clouds.21 mph19%30.07 "HgN/A
5:30 PM84 °FPassing clouds.20 mph14%30.07 "HgN/A
5:00 PM84 °FPassing clouds.18 mph16%30.07 "HgN/A
4:00 PM86 °FPassing clouds.21 mph22%30.07 "HgN/A
3:00 PM86 °FPassing clouds.17 mph19%30.09 "HgN/A
2:00 PM84 °FPassing clouds.16 mph22%30.12 "HgN/A
1:00 PM84 °FPassing clouds.23 mph22%30.15 "HgN/A
12:00 PM81 °FPassing clouds.21 mph28%30.18 "HgN/A
11:00 AM79 °FPassing clouds.18 mph28%30.21 "HgN/A
10:00 AM73 °FPassing clouds.9 mph44%30.21 "HgN/A
9:00 AM70 °FSunny.3 mph53%30.21 "Hg10 mi
8:00 AM59 °FHaze.No wind72%30.18 "Hg5 mi
Weather by CustomWeather, © 2015

See weather overviewHow to use our weather pages